Location: Chinna Viriv?da
(16.5281°N, 81.0493°E)
Time: 15:09:38
(UTC+00:00)

Cosmos 1610 Rocket - Pass Details

Date: 14 April 2026
Orbit: 951 x 1002 km, 82.9° (Epoch: 11 May)

Event Time Altitude Azimuth Distance (km) Brightness Sun altitude
Rises 13:47:59 0° 178° (S) 3,710 7.4 -14.2°
Reaches altitude 10° 13:50:32 10° 175° (S) 2,758 6.7 -14.7°
Maximum altitude 13:56:50 71° 93° (E) 1,046 4.4 -16.2°
Drops below altitude 10° 14:03:04 10° 10° (N) 2,734 6.9 -17.6°
Sets 14:05:35 0° 8° (N) 3,676 7.6 -18.2°
